owner,sensor,date,latitude,longitude,vertical_datum,wind_speed,wind_to_direction,wind_speed_of_gust,qcFlag 
COMPS,ioos:station:USF.COMPS:C10:1,2013-11-11T19:05:00Z,27.1690,-82.9260,3.0,3.019,6.563,4.363,'1111122,1111122,1111122' 
COMPS,ioos:station:USF.COMPS:C10:1,2013-11-11T19:35:00Z,27.1690,-82.9260,3.0,4.626,356.303,5.42,'1111122,1111122,1111122' 
COMPS,ioos:station:USF.COMPS:C10:1,2013-11-11T20:05:00Z,27.1690,-82.9260,3.0,4.405,355.871,5.3,'1111122,1111122,1111122' 
COMPS,ioos:station:USF.COMPS:C10:1,2013-11-11T20:35:00Z,27.1690,-82.9260,3.0,3.886,355.743,4.68,'1111122,1111122,1111122' 
COMPS,ioos:station:USF.COMPS:C10:1,2013-11-11T21:05:00Z,27.1690,-82.9260,3.0,3.854,0.531,4.483,'1111122,1111122,1111122' 
COMPS,ioos:station:USF.COMPS:C10:1,2013-11-11T21:35:00Z,27.1690,-82.9260,3.0,4.343,358.266,4.96,'1111122,1111122,1111122' 
COMPS,ioos:station:USF.COMPS:C10:1,2013-11-11T22:05:00Z,27.1690,-82.9260,3.0,4.39,355.733,5.107,'1111122,1111122,1111122' 
COMPS,ioos:station:USF.COMPS:C10:1,2013-11-11T22:35:00Z,27.1690,-82.9260,3.0,4.749,354.296,5.593,'1111122,1111122,1111122' 
COMPS,ioos:station:USF.COMPS:C10:1,2013-11-11T23:05:00Z,27.1690,-82.9260,3.0,5.597,350.896,6.687,'1111122,1111122,1111122' 
COMPS,ioos:station:USF.COMPS:C10:1,2013-11-11T23:35:00Z,27.1690,-82.9260,3.0,5.342,352.919,6.09,'1111122,1111122,1111122' 
COMPS,ioos:station:USF.COMPS:C10:1,2013-11-12T00:05:00Z,27.1690,-82.9260,3.0,5.146,354.102,6.143,'1111122,1111122,1111122' 
COMPS,ioos:station:USF.COMPS:C10:1,2013-11-12T00:35:00Z,27.1690,-82.9260,3.0,5.223,354.754,6.383,'1111122,1111122,1111122' 
COMPS,ioos:station:USF.COMPS:C10:1,2013-11-12T01:05:00Z,27.1690,-82.9260,3.0,5.535,356.117,6.443,'1111122,1111122,1111122' 
COMPS,ioos:station:USF.COMPS:C10:1,2013-11-12T01:35:00Z,27.1690,-82.9260,3.0,6.185,2.043,7.6,'1111122,1111122,1111122' 
COMPS,ioos:station:USF.COMPS:C10:1,2013-11-12T02:05:00Z,27.1690,-82.9260,3.0,6.174,3.254,7.293,'1111122,1111122,1111122' 
COMPS,ioos:station:USF.COMPS:C10:1,2013-11-12T02:35:00Z,27.1690,-82.9260,3.0,6.251,11.243,7.587,'1111122,1111122,1111122' 
COMPS,ioos:station:USF.COMPS:C10:1,2013-11-12T03:05:00Z,27.1690,-82.9260,3.0,5.992,16.497,7.293,'1111122,1111122,1111122' 
COMPS,ioos:station:USF.COMPS:C10:1,2013-11-12T03:35:00Z,27.1690,-82.9260,3.0,5.182,16.986,6.427,'1111122,1111122,1111122' 
COMPS,ioos:station:USF.COMPS:C10:1,2013-11-12T04:05:00Z,27.1690,-82.9260,3.0,4.941,21.262,6.203,'1111122,1111122,1111122' 
COMPS,ioos:station:USF.COMPS:C10:1,2013-11-12T04:35:00Z,27.1690,-82.9260,3.0,4.165,33.451,5.023,'1111122,1111122,1111122' 
COMPS,ioos:station:USF.COMPS:C10:1,2013-11-12T05:05:00Z,27.1690,-82.9260,3.0,3.796,53.791,4.53,'1111122,1111122,1111122' 
COMPS,ioos:station:USF.COMPS:C10:1,2013-11-12T05:35:00Z,27.1690,-82.9260,3.0,3.488,65.329,4.057,'1111122,1111122,1111122' 
COMPS,ioos:station:USF.COMPS:C10:1,2013-11-12T06:05:00Z,27.1690,-82.9260,3.0,3.549,73.184,4.213,'1111122,1111122,1111122' 
COMPS,ioos:station:USF.COMPS:C10:1,2013-11-12T06:35:00Z,27.1690,-82.9260,3.0,3.366,78.129,4.07,'1111122,1111122,1111122' 
COMPS,ioos:station:USF.COMPS:C10:1,2013-11-12T07:05:00Z,27.1690,-82.9260,3.0,2.862,83.576,3.487,'1111122,1111122,1111122' 
COMPS,ioos:station:USF.COMPS:C10:1,2013-11-12T07:35:00Z,27.1690,-82.9260,3.0,3.03,78.903,3.643,'1111122,1111122,1111122' 
COMPS,ioos:station:USF.COMPS:C10:1,2013-11-12T08:05:00Z,27.1690,-82.9260,3.0,3.171,78.457,4.25,'1111122,1111122,1111122' 
COMPS,ioos:station:USF.COMPS:C10:1,2013-11-12T08:35:00Z,27.1690,-82.9260,3.0,3.127,76.548,3.663,'1111122,1111122,1111122' 
COMPS,ioos:station:USF.COMPS:C10:1,2013-11-12T09:05:00Z,27.1690,-82.9260,3.0,3.348,59.042,4.237,'1111122,1111122,1111122' 
COMPS,ioos:station:USF.COMPS:C10:1,2013-11-12T09:35:00Z,27.1690,-82.9260,3.0,3.071,70.799,3.68,'1111122,1111122,1111122' 
COMPS,ioos:station:USF.COMPS:C10:1,2013-11-12T10:05:00Z,27.1690,-82.9260,3.0,3.125,68.073,3.943,'1111122,1111122,1111122' 
COMPS,ioos:station:USF.COMPS:C10:1,2013-11-12T10:35:00Z,27.1690,-82.9260,3.0,3.793,54.472,4.613,'1111122,1111122,1111122' 
COMPS,ioos:station:USF.COMPS:C10:1,2013-11-12T11:05:00Z,27.1690,-82.9260,3.0,3.954,47.124,4.727,'1111122,1111122,1111122' 
COMPS,ioos:station:USF.COMPS:C10:1,2013-11-12T11:35:00Z,27.1690,-82.9260,3.0,4.231,50.703,5.043,'1111122,1111122,1111122' 
COMPS,ioos:station:USF.COMPS:C10:1,2013-11-12T12:05:00Z,27.1690,-82.9260,3.0,4.494,53.508,5.27,'1111122,1111122,1111122' 
COMPS,ioos:station:USF.COMPS:C10:1,2013-11-12T12:35:00Z,27.1690,-82.9260,3.0,4.843,50.797,5.84,'1111122,1111122,1111122' 
COMPS,ioos:station:USF.COMPS:C10:1,2013-11-12T13:05:00Z,27.1690,-82.9260,3.0,4.392,56.118,5.183,'1111122,1111122,1111122' 
COMPS,ioos:station:USF.COMPS:C10:1,2013-11-12T13:35:00Z,27.1690,-82.9260,3.0,4.245,65.448,5.063,'1111122,1111122,1111122' 
COMPS,ioos:station:USF.COMPS:C10:1,2013-11-12T14:05:00Z,27.1690,-82.9260,3.0,4.207,70.435,4.973,'1111122,1111122,1111122' 
COMPS,ioos:station:USF.COMPS:C10:1,2013-11-12T14:35:00Z,27.1690,-82.9260,3.0,3.669,75.354,4.373,'1111122,1111122,1111122' 
COMPS,ioos:station:USF.COMPS:C10:1,2013-11-12T15:05:00Z,27.1690,-82.9260,3.0,3.304,71.448,3.89,'1111122,1111122,1111122' 
COMPS,ioos:station:USF.COMPS:C10:1,2013-11-12T15:35:00Z,27.1690,-82.9260,3.0,2.884,75.161,3.403,'1111122,1111122,1111122' 
COMPS,ioos:station:USF.COMPS:C10:1,2013-11-12T16:05:00Z,27.1690,-82.9260,3.0,3.23,64.808,3.913,'1111122,1111122,1111122' 
COMPS,ioos:station:USF.COMPS:C10:1,2013-11-12T16:35:00Z,27.1690,-82.9260,3.0,3.198,51.716,3.73,'1111122,1111122,1111122' 
COMPS,ioos:station:USF.COMPS:C10:1,2013-11-12T17:05:00Z,27.1690,-82.9260,3.0,3.321,33.695,4.02,'1111122,1111122,1111122' 
COMPS,ioos:station:USF.COMPS:C10:1,2013-11-12T17:35:00Z,27.1690,-82.9260,3.0,2.83,38.749,3.577,'1111122,1111122,1111122' 
COMPS,ioos:station:USF.COMPS:C10:1,2013-11-12T18:05:00Z,27.1690,-82.9260,3.0,2.403,25.61,2.987,'1111122,1111122,1111122' 
COMPS,ioos:station:USF.COMPS:C10:1,2013-11-12T18:35:00Z,27.1690,-82.9260,3.0,1.873,27.658,2.4,'1111122,1111122,1111122' 
COMPS,ioos:station:USF.COMPS:C10:1,2013-11-12T19:05:00Z,27.1690,-82.9260,3.0,1.729,25.511,2.153,'1111122,1111122,1111122' 
COMPS,ioos:station:USF.COMPS:C10:1,2013-11-12T19:35:00Z,27.1690,-82.9260,3.0,1.936,16.646,2.433,'1111122,1111122,1111122' 
COMPS,ioos:station:USF.COMPS:C10:1,2013-11-12T20:05:00Z,27.1690,-82.9260,3.0,2.257,345.047,2.757,'1111122,1111122,1111122' 
COMPS,ioos:station:USF.COMPS:C10:1,2013-11-12T20:35:00Z,27.1690,-82.9260,3.0,3.26,332.3,4.107,'1111122,1111122,1111122' 
COMPS,ioos:station:USF.COMPS:C10:1,2013-11-12T21:05:00Z,27.1690,-82.9260,3.0,4.067,340.227,5.16,'1111122,1111122,1111122' 
COMPS,ioos:station:USF.COMPS:C10:1,2013-11-12T21:35:00Z,27.1690,-82.9260,3.0,4.09,340.271,4.773,'1111122,1111122,1111122' 
COMPS,ioos:station:USF.COMPS:C10:1,2013-11-12T22:05:00Z,27.1690,-82.9260,3.0,4.99,341.27,5.957,'1111122,1111122,1111122' 
COMPS,ioos:station:USF.COMPS:C10:1,2013-11-12T22:35:00Z,27.1690,-82.9260,3.0,5.99,340.837,7.36,'1111122,1111122,1111122' 
COMPS,ioos:station:USF.COMPS:C10:1,2013-11-12T23:05:00Z,27.1690,-82.9260,3.0,6.874,348.532,8.06,'1111122,1111122,1111122' 
COMPS,ioos:station:USF.COMPS:C10:1,2013-11-12T23:35:00Z,27.1690,-82.9260,3.0,6.923,352.062,8.267,'1111122,1111122,1111122' 
COMPS,ioos:station:USF.COMPS:C10:1,2013-11-13T20:05:00Z,27.1690,-82.9260,3.0,9.318,47.205,11.583,'1111122,1111122,1111122' 
COMPS,ioos:station:USF.COMPS:C10:1,2013-11-13T20:35:00Z,27.1690,-82.9260,3.0,9.935,43.513,12.807,'1111122,1111122,1111122' 
COMPS,ioos:station:USF.COMPS:C10:1,2013-11-13T21:05:00Z,27.1690,-82.9260,3.0,10.775,46.085,14.393,'1111122,1111122,1111122' 
COMPS,ioos:station:USF.COMPS:C10:1,2013-11-13T21:35:00Z,27.1690,-82.9260,3.0,10.689,49.208,15.95,'1111122,1111122,1111122' 
COMPS,ioos:station:USF.COMPS:C10:1,2013-11-13T22:05:00Z,27.1690,-82.9260,3.0,10.257,43.575,13.167,'1111122,1111122,1111122' 
COMPS,ioos:station:USF.COMPS:C10:1,2013-11-13T22:35:00Z,27.1690,-82.9260,3.0,12.024,50.261,14.807,'1111122,1111122,1111122' 
COMPS,ioos:station:USF.COMPS:C10:1,2013-11-13T23:05:00Z,27.1690,-82.9260,3.0,11.504,51.618,14.237,'1111122,1111122,1111122' 
COMPS,ioos:station:USF.COMPS:C10:1,2013-11-13T23:35:00Z,27.1690,-82.9260,3.0,12.293,60.463,15.463,'1111122,1111122,1111122' 
COMPS,ioos:station:USF.COMPS:C10:1,2013-11-14T00:05:00Z,27.1690,-82.9260,3.0,11.938,56.453,14.757,'1111122,1111122,1111122' 
COMPS,ioos:station:USF.COMPS:C10:1,2013-11-14T00:35:00Z,27.1690,-82.9260,3.0,11.863,51.663,14.36,'1111122,1111122,1111122' 
COMPS,ioos:station:USF.COMPS:C10:1,2013-11-14T01:05:00Z,27.1690,-82.9260,3.0,12.023,49.27,15.313,'1111122,1111122,1111122' 
COMPS,ioos:station:USF.COMPS:C10:1,2013-11-14T01:35:00Z,27.1690,-82.9260,3.0,12.58,50.405,16.613,'1111122,1111122,1111122' 
COMPS,ioos:station:USF.COMPS:C10:1,2013-11-14T02:05:00Z,27.1690,-82.9260,3.0,11.962,47.799,14.707,'1111122,1111122,1111122' 
COMPS,ioos:station:USF.COMPS:C10:1,2013-11-14T02:35:00Z,27.1690,-82.9260,3.0,11.847,50.155,14.463,'1111122,1111122,1111122' 
COMPS,ioos:station:USF.COMPS:C10:1,2013-11-14T03:05:00Z,27.1690,-82.9260,3.0,12.156,48.754,15.593,'1111122,1111122,1111122' 
COMPS,ioos:station:USF.COMPS:C10:1,2013-11-14T03:35:00Z,27.1690,-82.9260,3.0,11.495,50.405,14.783,'1111122,1111122,1111122' 
COMPS,ioos:station:USF.COMPS:C10:1,2013-11-14T04:05:00Z,27.1690,-82.9260,3.0,11.733,50.539,14.753,'1111122,1111122,1111122' 
COMPS,ioos:station:USF.COMPS:C10:1,2013-11-14T04:35:00Z,27.1690,-82.9260,3.0,11.668,53.709,14.353,'1111122,1111122,1111122' 
COMPS,ioos:station:USF.COMPS:C10:1,2013-11-14T05:05:00Z,27.1690,-82.9260,3.0,11.951,50.378,14.847,'1111122,1111122,1111122' 
COMPS,ioos:station:USF.COMPS:C10:1,2013-11-14T05:35:00Z,27.1690,-82.9260,3.0,11.696,54.364,15.02,'1111122,1111122,1111122' 
COMPS,ioos:station:USF.COMPS:C10:1,2013-11-14T06:05:00Z,27.1690,-82.9260,3.0,11.681,56.937,14.687,'1111122,1111122,1111122' 
COMPS,ioos:station:USF.COMPS:C10:1,2013-11-14T06:35:00Z,27.1690,-82.9260,3.0,12.111,58.939,15.12,'1111122,1111122,1111122' 
COMPS,ioos:station:USF.COMPS:C10:1,2013-11-14T07:05:00Z,27.1690,-82.9260,3.0,12.279,61.468,15.13,'1111122,1111122,1111122' 
COMPS,ioos:station:USF.COMPS:C10:1,2013-11-14T07:35:00Z,27.1690,-82.9260,3.0,12.16,60.965,15.16,'1111122,1111122,1111122' 
COMPS,ioos:station:USF.COMPS:C10:1,2013-11-14T08:05:00Z,27.1690,-82.9260,3.0,12.189,64.37,15.393,'1111122,1111122,1111122' 
COMPS,ioos:station:USF.COMPS:C10:1,2013-11-14T08:35:00Z,27.1690,-82.9260,3.0,12.101,65.613,14.807,'1111122,1111122,1111122' 
COMPS,ioos:station:USF.COMPS:C10:1,2013-11-14T09:05:00Z,27.1690,-82.9260,3.0,11.798,61.188,14.397,'1111122,1111122,1111122' 
COMPS,ioos:station:USF.COMPS:C10:1,2013-11-14T09:35:00Z,27.1690,-82.9260,3.0,11.641,65.639,14.69,'1111122,1111122,1111122' 
COMPS,ioos:station:USF.COMPS:C10:1,2013-11-14T10:05:00Z,27.1690,-82.9260,3.0,11.527,62.467,14.273,'1111122,1111122,1111122' 
COMPS,ioos:station:USF.COMPS:C10:1,2013-11-14T10:35:00Z,27.1690,-82.9260,3.0,11.575,67.827,14.437,'1111122,1111122,1111122' 
COMPS,ioos:station:USF.COMPS:C10:1,2013-11-14T11:05:00Z,27.1690,-82.9260,3.0,11.086,61.703,13.61,'1111122,1111122,1111122' 
COMPS,ioos:station:USF.COMPS:C10:1,2013-11-14T11:35:00Z,27.1690,-82.9260,3.0,10.818,59.37,13.267,'1111122,1111122,1111122' 
COMPS,ioos:station:USF.COMPS:C10:1,2013-11-14T12:05:00Z,27.1690,-82.9260,3.0,10.892,62.923,13.84,'1111122,1111122,1111122' 
COMPS,ioos:station:USF.COMPS:C10:1,2013-11-14T12:35:00Z,27.1690,-82.9260,3.0,10.763,63.861,13.507,'1111122,1111122,1111122' 
COMPS,ioos:station:USF.COMPS:C10:1,2013-11-14T13:05:00Z,27.1690,-82.9260,3.0,10.088,59.12,12.19,'1111122,1111122,1111122' 
COMPS,ioos:station:USF.COMPS:C10:1,2013-11-14T13:35:00Z,27.1690,-82.9260,3.0,10.247,63.263,13.067,'1111122,1111122,1111122' 
COMPS,ioos:station:USF.COMPS:C10:1,2013-11-14T14:05:00Z,27.1690,-82.9260,3.0,9.527,61.631,12.367,'1111122,1111122,1111122' 
COMPS,ioos:station:USF.COMPS:C10:1,2013-11-14T14:35:00Z,27.1690,-82.9260,3.0,9.578,63.257,11.697,'1111122,1111122,1111122' 
COMPS,ioos:station:USF.COMPS:C10:1,2013-11-14T15:05:00Z,27.1690,-82.9260,3.0,9.773,68.153,11.793,'1111122,1111122,1111122' 
COMPS,ioos:station:USF.COMPS:C10:1,2013-11-14T15:35:00Z,27.1690,-82.9260,3.0,9.818,74.879,12.017,'1111122,1111122,1111122' 
COMPS,ioos:station:USF.COMPS:C10:1,2013-11-14T16:05:00Z,27.1690,-82.9260,3.0,8.301,71.462,10.323,'1111122,1111122,1111122' 
COMPS,ioos:station:USF.COMPS:C10:1,2013-11-14T16:35:00Z,27.1690,-82.9260,3.0,8.042,70.699,10.493,'1111122,1111122,1111122' 
COMPS,ioos:station:USF.COMPS:C10:1,2013-11-14T17:05:00Z,27.1690,-82.9260,3.0,7.129,69.397,8.977,'1111122,1111122,1111122' 
COMPS,ioos:station:USF.COMPS:C10:1,2013-11-14T17:35:00Z,27.1690,-82.9260,3.0,7.794,80.646,9.793,'1111122,1111122,1111122' 
COMPS,ioos:station:USF.COMPS:C10:1,2013-11-14T18:05:00Z,27.1690,-82.9260,3.0,7.438,96.632,9.393,'1111122,1111122,1111122' 
COMPS,ioos:station:USF.COMPS:C10:1,2013-11-14T18:35:00Z,27.1690,-82.9260,3.0,6.109,89.248,7.693,'1111122,1111122,1111122' 
COMPS,ioos:station:USF.COMPS:C10:1,2013-11-14T19:05:00Z,27.1690,-82.9260,3.0,6.61,88.916,8.027,'1111122,1111122,1111122' 
COMPS,ioos:station:USF.COMPS:C10:1,2013-11-14T19:35:00Z,27.1690,-82.9260,3.0,6.539,107.357,8.5,'1111122,1111122,1111122' 
COMPS,ioos:station:USF.COMPS:C10:1,2013-11-15T09:05:00Z,27.1690,-82.9260,3.0,8.413,118.598,10.34,'1111122,1111122,1111122' 
COMPS,ioos:station:USF.COMPS:C10:1,2013-11-15T09:35:00Z,27.1690,-82.9260,3.0,7.612,109.133,9.433,'1111122,1111122,1111122' 
COMPS,ioos:station:USF.COMPS:C10:1,2013-11-15T10:05:00Z,27.1690,-82.9260,3.0,6.918,105.413,8.803,'1111122,1111122,1111122' 
COMPS,ioos:station:USF.COMPS:C10:1,2013-11-15T10:35:00Z,27.1690,-82.9260,3.0,6.935,102.542,8.75,'1111122,1111122,1111122' 
COMPS,ioos:station:USF.COMPS:C10:1,2013-11-15T11:05:00Z,27.1690,-82.9260,3.0,6.889,103.825,8.497,'1111122,1111122,1111122' 
COMPS,ioos:station:USF.COMPS:C10:1,2013-11-15T11:35:00Z,27.1690,-82.9260,3.0,6.279,101.802,8.293,'1111122,1111122,1111122' 
COMPS,ioos:station:USF.COMPS:C10:1,2013-11-15T12:05:00Z,27.1690,-82.9260,3.0,5.98,92.387,7.413,'1111122,1111122,1111122' 
COMPS,ioos:station:USF.COMPS:C10:1,2013-11-15T12:35:00Z,27.1690,-82.9260,3.0,6.18,79.7,7.81,'1111122,1111122,1111122' 
COMPS,ioos:station:USF.COMPS:C10:1,2013-11-15T13:05:00Z,27.1690,-82.9260,3.0,6.512,85.985,8.22,'1111122,1111122,1111122' 
COMPS,ioos:station:USF.COMPS:C10:1,2013-11-15T13:35:00Z,27.1690,-82.9260,3.0,6.639,81.366,8.637,'1111122,1111122,1111122' 
COMPS,ioos:station:USF.COMPS:C10:1,2013-11-15T14:05:00Z,27.1690,-82.9260,3.0,6.759,80.808,8.307,'1111122,1111122,1111122' 
COMPS,ioos:station:USF.COMPS:C10:1,2013-11-15T14:35:00Z,27.1690,-82.9260,3.0,6.362,80.099,7.74,'1111122,1111122,1111122' 
COMPS,ioos:station:USF.COMPS:C10:1,2013-11-15T15:05:00Z,27.1690,-82.9260,3.0,6.895,82.817,8.1,'1111122,1111122,1111122' 
COMPS,ioos:station:USF.COMPS:C10:1,2013-11-15T15:35:00Z,27.1690,-82.9260,3.0,6.812,83.347,8.497,'1111122,1111122,1111122' 
COMPS,ioos:station:USF.COMPS:C10:1,2013-11-15T16:05:00Z,27.1690,-82.9260,3.0,6.151,81.378,7.693,'1111122,1111122,1111122' 
COMPS,ioos:station:USF.COMPS:C10:1,2013-11-15T16:35:00Z,27.1690,-82.9260,3.0,5.147,87.294,6.447,'1111122,1111122,1111122' 
COMPS,ioos:station:USF.COMPS:C10:1,2013-11-15T17:05:00Z,27.1690,-82.9260,3.0,5.35,73.515,6.483,'1111122,1111122,1111122' 
COMPS,ioos:station:USF.COMPS:C10:1,2013-11-15T17:35:00Z,27.1690,-82.9260,3.0,5.414,74.557,6.337,'1111122,1111122,1111122' 
COMPS,ioos:station:USF.COMPS:C10:1,2013-11-15T18:05:00Z,27.1690,-82.9260,3.0,5.932,62.184,7.53,'1111122,1111122,1111122' 
COMPS,ioos:station:USF.COMPS:C10:1,2013-11-15T18:35:00Z,27.1690,-82.9260,3.0,6.27,62.014,7.877,'1111122,1111122,1111122' 
COMPS,ioos:station:USF.COMPS:C10:1,2013-11-15T19:05:00Z,27.1690,-82.9260,3.0,5.205,60.736,6.537,'1111122,1111122,1111122' 
COMPS,ioos:station:USF.COMPS:C10:1,2013-11-15T19:35:00Z,27.1690,-82.9260,3.0,5.855,60.763,7.4,'1111122,1111122,1111122' 
COMPS,ioos:station:USF.COMPS:C10:1,2013-11-15T20:05:00Z,27.1690,-82.9260,3.0,6.799,57.692,8.203,'1111122,1111122,1111122' 
COMPS,ioos:station:USF.COMPS:C10:1,2013-11-15T20:35:00Z,27.1690,-82.9260,3.0,7.05,55.727,8.407,'1111122,1111122,1111122' 
COMPS,ioos:station:USF.COMPS:C10:1,2013-11-15T21:05:00Z,27.1690,-82.9260,3.0,7.743,57.527,9.57,'1111122,1111122,1111122' 
COMPS,ioos:station:USF.COMPS:C10:1,2013-11-15T21:35:00Z,27.1690,-82.9260,3.0,8.008,59.134,9.64,'1111122,1111122,1111122' 
COMPS,ioos:station:USF.COMPS:C10:1,2013-11-15T22:05:00Z,27.1690,-82.9260,3.0,7.509,57.285,9.593,'1111122,1111122,1111122' 
COMPS,ioos:station:USF.COMPS:C10:1,2013-11-15T22:35:00Z,27.1690,-82.9260,3.0,8.089,55.698,9.723,'1111122,1111122,1111122' 
COMPS,ioos:station:USF.COMPS:C10:1,2013-11-15T23:05:00Z,27.1690,-82.9260,3.0,8.525,54.643,10.78,'1111122,1111122,1111122' 
COMPS,ioos:station:USF.COMPS:C10:1,2013-11-15T23:35:00Z,27.1690,-82.9260,3.0,8.431,54.56,10.637,'1111122,1111122,1111122' 
COMPS,ioos:station:USF.COMPS:C10:1,2013-11-16T00:05:00Z,27.1690,-82.9260,3.0,8.908,53.235,11.457,'1111122,1111122,1111122' 
COMPS,ioos:station:USF.COMPS:C10:1,2013-11-16T00:35:00Z,27.1690,-82.9260,3.0,9.516,55.275,12.157,'1111122,1111122,1111122' 
COMPS,ioos:station:USF.COMPS:C10:1,2013-11-16T01:05:00Z,27.1690,-82.9260,3.0,9.879,65.541,11.947,'1111122,1111122,1111122' 
COMPS,ioos:station:USF.COMPS:C10:1,2013-11-16T01:35:00Z,27.1690,-82.9260,3.0,9.477,66.322,11.783,'1111122,1111122,1111122' 
COMPS,ioos:station:USF.COMPS:C10:1,2013-11-16T02:05:00Z,27.1690,-82.9260,3.0,9.377,66.953,11.97,'1111122,1111122,1111122' 
COMPS,ioos:station:USF.COMPS:C10:1,2013-11-16T02:35:00Z,27.1690,-82.9260,3.0,8.505,66.037,10.727,'1111122,1111122,1111122' 
COMPS,ioos:station:USF.COMPS:C10:1,2013-11-16T03:05:00Z,27.1690,-82.9260,3.0,8.739,70.361,10.79,'1111122,1111122,1111122' 
COMPS,ioos:station:USF.COMPS:C10:1,2013-11-16T03:35:00Z,27.1690,-82.9260,3.0,8.575,76.867,10.32,'1111122,1111122,1111122' 
COMPS,ioos:station:USF.COMPS:C10:1,2013-11-16T04:05:00Z,27.1690,-82.9260,3.0,7.788,81.904,9.393,'1111122,1111122,1111122' 
COMPS,ioos:station:USF.COMPS:C10:1,2013-11-16T04:35:00Z,27.1690,-82.9260,3.0,7.497,82.46,9.41,'1111122,1111122,1111122' 
COMPS,ioos:station:USF.COMPS:C10:1,2013-11-16T05:05:00Z,27.1690,-82.9260,3.0,7.475,84.18,9.233,'1111122,1111122,1111122' 
COMPS,ioos:station:USF.COMPS:C10:1,2013-11-16T05:35:00Z,27.1690,-82.9260,3.0,7.294,92.3,8.917,'1111122,1111122,1111122' 
COMPS,ioos:station:USF.COMPS:C10:1,2013-11-16T06:05:00Z,27.1690,-82.9260,3.0,8.232,96.845,9.977,'1111122,1111122,1111122' 
COMPS,ioos:station:USF.COMPS:C10:1,2013-11-16T06:35:00Z,27.1690,-82.9260,3.0,7.987,105.921,10.19,'1111122,1111122,1111122' 
COMPS,ioos:station:USF.COMPS:C10:1,2013-11-16T07:05:00Z,27.1690,-82.9260,3.0,8.377,108.685,10.15,'1111122,1111122,1111122' 
COMPS,ioos:station:USF.COMPS:C10:1,2013-11-16T07:35:00Z,27.1690,-82.9260,3.0,8.09,119.211,9.95,'1111122,1111122,1111122' 
COMPS,ioos:station:USF.COMPS:C10:1,2013-11-16T08:05:00Z,27.1690,-82.9260,3.0,8.036,121.525,10.077,'1111122,1111122,1111122' 
COMPS,ioos:station:USF.COMPS:C10:1,2013-11-16T08:35:00Z,27.1690,-82.9260,3.0,8.144,121.769,10.533,'1111122,1111122,1111122' 
COMPS,ioos:station:USF.COMPS:C10:1,2013-11-16T09:05:00Z,27.1690,-82.9260,3.0,8.507,134.571,10.71,'1111122,1111122,1111122' 
COMPS,ioos:station:USF.COMPS:C10:1,2013-11-16T09:35:00Z,27.1690,-82.9260,3.0,7.62,131.14,9.183,'1111122,1111122,1111122' 
COMPS,ioos:station:USF.COMPS:C10:1,2013-11-16T10:05:00Z,27.1690,-82.9260,3.0,7.468,131.346,10.117,'1111122,1111122,1111122' 
COMPS,ioos:station:USF.COMPS:C10:1,2013-11-16T10:35:00Z,27.1690,-82.9260,3.0,7.235,124.715,9.33,'1111122,1111122,1111122' 
COMPS,ioos:station:USF.COMPS:C10:1,2013-11-16T12:05:00Z,27.1690,-82.9260,3.0,5.311,104.283,6.863,'1111122,1111122,1111122' 
COMPS,ioos:station:USF.COMPS:C10:1,2013-11-16T12:35:00Z,27.1690,-82.9260,3.0,6.5,100.753,8.457,'1111122,1111122,1111122' 
COMPS,ioos:station:USF.COMPS:C10:1,2013-11-16T13:05:00Z,27.1690,-82.9260,3.0,7.439,77.904,8.89,'1111122,1111122,1111122' 
COMPS,ioos:station:USF.COMPS:C10:1,2013-11-16T13:35:00Z,27.1690,-82.9260,3.0,7.279,66.994,8.84,'1111122,1111122,1111122' 
COMPS,ioos:station:USF.COMPS:C10:1,2013-11-18T14:05:00Z,27.1690,-82.9260,3.0,3.102,134.685,3.56,'1111122,1111122,1111122' 
COMPS,ioos:station:USF.COMPS:C10:1,2013-11-18T14:35:00Z,27.1690,-82.9260,3.0,3.021,145.512,3.533,'1111122,1111122,1111122' 
COMPS,ioos:station:USF.COMPS:C10:1,2013-11-18T15:05:00Z,27.1690,-82.9260,3.0,3.397,152.985,4.07,'1111122,1111122,1111122' 
COMPS,ioos:station:USF.COMPS:C10:1,2013-11-18T15:35:00Z,27.1690,-82.9260,3.0,3.0,154.092,3.48,'1111122,1111122,1111122' 
COMPS,ioos:station:USF.COMPS:C10:1,2013-11-18T16:05:00Z,27.1690,-82.9260,3.0,2.725,171.256,3.393,'1111122,1111122,1111122' 
COMPS,ioos:station:USF.COMPS:C10:1,2013-11-18T16:35:00Z,27.1690,-82.9260,3.0,1.495,173.955,2.65,'1111122,1111122,1111122' 
COMPS,ioos:station:USF.COMPS:C10:1,2013-11-18T17:05:00Z,27.1690,-82.9260,3.0,1.685,186.946,2.057,'1111122,1111122,1111122' 
COMPS,ioos:station:USF.COMPS:C10:1,2013-11-18T17:35:00Z,27.1690,-82.9260,3.0,2.379,195.667,2.83,'1111122,1111122,1111122' 
COMPS,ioos:station:USF.COMPS:C10:1,2013-11-18T18:05:00Z,27.1690,-82.9260,3.0,2.284,205.088,3.257,'1111122,1111122,1111122' 
COMPS,ioos:station:USF.COMPS:C10:1,2013-11-18T18:35:00Z,27.1690,-82.9260,3.0,2.662,214.243,3.09,'1111122,1111122,1111122' 
COMPS,ioos:station:USF.COMPS:C10:1,2013-11-18T19:05:00Z,27.1690,-82.9260,3.0,1.967,250.204,2.63,'1111122,1111122,1111122' 
COMPS,ioos:station:USF.COMPS:C10:1,2013-11-18T19:35:00Z,27.1690,-82.9260,3.0,2.106,243.822,2.513,'1111122,1111122,1111122' 
COMPS,ioos:station:USF.COMPS:C10:1,2013-11-18T20:05:00Z,27.1690,-82.9260,3.0,1.694,261.591,2.127,'1111122,1111122,1111122' 
COMPS,ioos:station:USF.COMPS:C10:1,2013-11-18T20:35:00Z,27.1690,-82.9260,3.0,1.743,266.795,2.1,'1111122,1111122,1111122' 
COMPS,ioos:station:USF.COMPS:C10:1,2013-11-18T21:05:00Z,27.1690,-82.9260,3.0,1.559,253.692,1.93,'1111122,1111122,1111122' 
COMPS,ioos:station:USF.COMPS:C10:1,2013-11-18T21:35:00Z,27.1690,-82.9260,3.0,1.424,275.048,1.723,'1111122,1111122,1111122' 
COMPS,ioos:station:USF.COMPS:C10:1,2013-11-18T22:05:00Z,27.1690,-82.9260,3.0,1.359,290.211,1.593,'1111122,1111122,1111122' 
COMPS,ioos:station:USF.COMPS:C10:1,2013-11-18T22:35:00Z,27.1690,-82.9260,3.0,1.108,279.876,1.437,'1111122,1111122,1111122' 
COMPS,ioos:station:USF.COMPS:C10:1,2013-11-18T23:05:00Z,27.1690,-82.9260,3.0,1.256,274.701,1.647,'1111122,1111122,1111122' 
COMPS,ioos:station:USF.COMPS:C10:1,2013-11-18T23:35:00Z,27.1690,-82.9260,3.0,0.922,295.23,1.28,'1111122,1111122,1111122' 
COMPS,ioos:station:USF.COMPS:C10:1,2013-11-19T00:05:00Z,27.1690,-82.9260,3.0,0.492,191.687,0.767,'1111122,1111122,1111122' 
COMPS,ioos:station:USF.COMPS:C10:1,2013-11-19T00:35:00Z,27.1690,-82.9260,3.0,1.216,206.475,1.487,'1111122,1111122,1111122' 
COMPS,ioos:station:USF.COMPS:C10:1,2013-11-19T01:05:00Z,27.1690,-82.9260,3.0,1.37,257.357,1.707,'1111122,1111122,1111122' 
COMPS,ioos:station:USF.COMPS:C10:1,2013-11-19T01:35:00Z,27.1690,-82.9260,3.0,1.27,221.739,1.603,'1111122,1111122,1111122' 
COMPS,ioos:station:USF.COMPS:C10:1,2013-11-19T02:05:00Z,27.1690,-82.9260,3.0,1.427,257.491,1.903,'1111122,1111122,1111122' 
COMPS,ioos:station:USF.COMPS:C10:1,2013-11-19T02:35:00Z,27.1690,-82.9260,3.0,2.95,281.217,3.493,'1111122,1111122,1111122' 
COMPS,ioos:station:USF.COMPS:C10:1,2013-11-19T03:05:00Z,27.1690,-82.9260,3.0,2.582,263.558,2.99,'1111122,1111122,1111122' 
COMPS,ioos:station:USF.COMPS:C10:1,2013-11-19T03:35:00Z,27.1690,-82.9260,3.0,3.367,259.286,4.093,'1111122,1111122,1111122' 
COMPS,ioos:station:USF.COMPS:C10:1,2013-11-19T04:05:00Z,27.1690,-82.9260,3.0,2.839,283.32,3.477,'1111122,1111122,1111122' 
COMPS,ioos:station:USF.COMPS:C10:1,2013-11-19T04:35:00Z,27.1690,-82.9260,3.0,4.412,282.335,5.377,'1111122,1111122,1111122' 
COMPS,ioos:station:USF.COMPS:C10:1,2013-11-19T05:05:00Z,27.1690,-82.9260,3.0,3.007,276.5,3.747,'1111122,1111122,1111122' 